FW3309 Weather Reports


time (UTC)temp
C
wind
direction
speed
KPH
gust
KPH
rain 1hr
cm
rain 24hr
cm
rain mn
cm
humidity
%
barometer
mb
20260503224815 8 244 6.4 14.5 0.08 0.13 0.13 84 1008.1
20260503223814 8 223 6.4 16.1 0.00 0.10 0.10 84 1008.3
20260503222744 9 228 4.8 16.1 0.00 0.08 0.08 83 1008.4
20260503221724 9 218 4.8 19.3 0.00 0.08 0.08 83 1008.3
20260503220655 9 255 6.4 19.3 0.00 0.08 0.08 83 1008.4
20260503215714 9 220 6.4 14.5 0.00 0.08 0.08 84 1008.5
20260503214654 8 210 4.8 17.7 0.00 0.08 0.08 86 1008.5
20260503213633 8 238 6.4 19.3 0.00 0.08 0.08 86 1008.4
20260503212649 8 223 3.2 19.3 0.00 0.08 0.08 87 1008.3
20260503210550 8 240 4.8 16.1 0.00 0.08 0.08 87 1008.5
20260503204401 8 227 4.8 20.9 0.00 0.08 0.08 86 1008.7
20260503203332 7 196 6.4 20.9 0.00 0.08 0.08 85 1008.8
20260503201248 7 234 8.0 20.9 0.00 0.08 0.08 84 1009.2
20260503200311 8 227 6.4 17.7 0.10 0.08 0.08 83 1009.3
20260503195325 8 236 4.8 24.1 0.08 0.05 0.05 82 1009.3
20260503194323 8 223 11.3 24.1 0.00 0.03 0.03 79 1009.4
20260503192246 8 243 11.3 33.8 0.00 0.00 0.00 72 1009.7
20260503191252 9 282 4.8 24.1 0.00 0.00 0.00 69 1009.8
20260503190253 10 252 1.6 12.9 0.00 0.00 0.00 71 1009.9
20260503185230 10 251 3.2 20.9 0.00 0.00 0.00 68 1010.1
20260503184239 10 246 8.0 32.2 0.00 0.00 0.00 63 1010.3
20260503183243 11 237 11.3 32.2 0.00 0.00 0.00 56 1010.4
20260503182306 11 227 11.3 29.0 0.00 0.00 0.00 49 1010.3
20260503175039 12 288 9.7 30.6 0.00 0.00 0.00 44 1010.2
20260503172912 12 245 8.0 25.7 0.00 0.00 0.00 44 1010.4
20260503171916 12 276 8.0 24.1 0.00 0.00 0.00 42 1010.7
20260503140223 10 219 4.8 19.3 0.00 0.00 0.00 43 1013.2
20260503131133 7 205 4.8 19.3 0.00 0.00 0.00 52 1013.7
20260503090424 -1 248 1.6 4.8 0.00 0.00 0.00 71 1014.9
20260503081201 -1 248 1.6 6.4 0.00 0.00 0.00 69 1015.0
20260503080220 -1 248 1.6 6.4 0.00 0.00 0.00 68 1015.1
20260503072028 -1 248 1.6 6.4 0.00 0.00 0.00 69 1015.2
20260503071021 -1 248 1.6 4.8 0.00 0.00 0.00 68 1015.2
20260503054801 -1 248 0.0 6.4 0.00 0.00 0.00 70 1015.8
20260503053748 -1 248 0.0 3.2 0.00 0.00 0.00 70 1015.9
20260503052759 -1 248 0.0 3.2 0.00 0.00 0.00 70 1016.0
20260503051818 -1 248 0.0 4.8 0.00 0.00 0.00 70 1016.1
20260503050751 -1 248 1.6 6.4 0.00 0.00 0.00 72 1016.1
20260503045719 -1 249 1.6 6.4 0.00 0.00 0.00 73 1016.2
20260503044714 -1 251 0.0 4.8 0.00 0.00 0.00 74 1016.2
20260503043723 0 251 1.6 4.8 0.00 0.00 0.00 73 1016.3
20260503042722 0 251 0.0 4.8 0.00 0.00 0.00 72 1016.3
20260503041743 0 251 0.0 4.8 0.00 0.00 0.00 71 1016.5
20260503035604 0 251 1.6 4.8 0.00 0.00 0.00 71 1016.6
20260503034601 0 251 0.0 6.4 0.00 0.00 0.00 68 1016.7
20260503033537 0 251 1.6 6.4 0.00 0.00 0.00 67 1016.7
20260503031502 0 251 1.6 6.4 0.00 0.00 0.00 69 1016.8
20260503030449 0 251 0.0 3.2 0.00 0.00 0.00 68 1016.7
20260503025450 0 251 0.0 3.2 0.00 0.00 0.00 67 1016.9
20260503024501 1 251 0.0 3.2 0.00 0.00 0.00 66 1017.0
20260503023458 1 251 0.0 4.8 0.00 0.00 0.00 65 1017.0
20260503022521 1 251 0.0 4.8 0.00 0.00 0.00 64 1017.1
20260503021455 1 251 1.6 3.2 0.00 0.00 0.00 62 1017.1
20260503020433 2 251 0.0 3.2 0.00 0.00 0.00 59 1017.0
20260503015421 2 251 0.0 3.2 0.00 0.00 0.00 56 1017.0
20260503014423 2 251 0.0 1.6 0.00 0.00 0.00 55 1017.0
20260503013419 2 251 0.0 3.2 0.00 0.00 0.00 55 1016.9
20260503012345 3 251 1.6 4.8 0.00 0.03 0.00 54 1016.9
20260503010216 3 251 1.6 6.4 0.00 0.03 0.00 51 1016.7
20260503005225 3 251 3.2 8.0 0.00 0.03 0.00 50 1016.7
20260503004214 4 251 3.2 9.7 0.00 0.03 0.00 48 1016.7
20260503003159 4 252 3.2 16.1 0.00 0.05 0.00 47 1016.8
20260503002224 5 252 4.8 19.3 0.00 0.05 0.00 45 1016.7
20260503001210 5 235 6.4 19.3 0.00 0.05 0.00 43 1016.7
20260503000206 5 252 6.4 19.3 0.00 0.05 0.00 42 1016.7
20260502235230 6 263 8.0 20.9 0.00 0.05 0.00 42 1016.7
20260502234228 6 257 8.0 20.9 0.00 0.05 0.00 41 1016.8
20260502233204 6 295 9.7 20.9 0.00 0.05 0.00 41 1016.8
20260502232202 6 268 9.7 20.9 0.00 0.05 0.00 40 1016.9
20260502231200 6 240 8.0 19.3 0.00 0.05 0.00 43 1016.8
20260502230232 7 281 9.7 19.3 0.00 0.05 0.00 43 1016.8
20260502225159 7 270 9.7 20.9 0.00 0.05 0.00 40 1016.8